Find Fuji-OSCAR-29

NORAD ID: 24278 Int'l Des: 1996-046 Owner: JARL Country: J operational
LEORETROGRADE

Current View

Loading 3D Globe...

About Fuji-OSCAR-29

Description loading...

Upcoming Passes

Passes for default location (London). Set your location on the main map for personalized predictions.

Altitude History

Loading altitude history...

Two-Line Element Set

1 24278U 96046B 26151.01021178 -.00000016 00000-0 16725-4 0 9996
2 24278 98.5255 2.2342 0350519 140.8980 221.8063 13.53273521470842
Epoch: May 31, 2026 • Age: 12 hours

Current Status

Altitude 1315.9 km
Velocity 7.08 km/s
Sub-Earth Point -22.49°S, 71.03°W
Launch Date Aug 17, 1996
Age 29.7 years
Type other

Technical Details

Classification Payload
Mass 50.00 kg
Dry Mass 50.00 kg
Total Mass 50.00 kg
Length 0.50 m
Diameter 0.40 m
Span 0.50 m
Shape Poly + Ant
Manufacturer JARL
Bus Type JAS
Phase Status Unknown Transfer Status
Owner/State JARL/J

Most Searched